QPF
0.00 0.00 0.00 0.00 0.00 0.00 0.00 0.00 0.00 0.00 0.00 0.00 0.00 0.00 0.00 0.00 0.00 0.00 0.00 0.00 0.00 0.00 0.00 0.00 0.00 0.00 0.00 0.00 0.00 0.00 0.00 0.00 0.00 0.00 0.00 0.00 0.00 0.00 0.00 0.00 0.00 0.00 0.00
0.00 0.00 0.00 0.00 0.00 0.00 0.00 0.00 0.00 0.00 0.00 0.00 0.00 0.00 0.00 0.00 0.00 0.00 0.00 0.00 0.00 0.00 0.00 0.00 0.00 0.00 0.00 0.00 0.00 0.00 0.00 0.00 0.00 0.00 0.00 0.00 0.00 0.00 0.00 0.00 0.00 0.00 0.00
0.00 0.00 0.00 0.00 0.00 0.00 0.00 0.00 0.00 0.00 0.00 0.00 0.00 0.00 0.00 0.00 0.00 0.00 0.00 0.00 0.00 0.00 0.00 0.00 0.00 0.00 0.00 0.00 0.00 0.00 0.00 0.00 0.00 0.00 0.00 0.00 0.00 0.00 0.00 0.00 0.00 0.00 0.00
0.00 0.00 0.00 0.00 0.00 0.00 0.00 0.00 0.00 0.00 0.00 0.00 0.00 0.00 0.00 0.00 0.00 0.00 0.00 0.00 0.00 0.00 0.00 0.00 0.00 0.00 0.00 0.00 0.00 0.00 0.00 0.00 0.00 0.00 0.00 0.00 0.00 0.00 0.00 0.00 0.00 0.00 0.00
0.00 0.00 0.00 0.00 0.00 0.00 0.00 0.00 0.00 0.00 0.00 0.00 0.00 0.00 0.00 0.00 0.00 0.00 0.00 0.00 0.00 0.00 0.00 0.00 0.00 0.00 0.00 0.00 0.00 0.01 0.01 0.00 0.00 0.00 0.00 0.00 0.00 0.00 0.00 0.00 0.00 0.00 0.00
0.00 0.00 0.00 0.00 0.00 0.00 0.00 0.01 0.03 0.00 0.00 0.00 0.00 0.00 0.00 0.00 0.00 0.00 0.00 0.00 0.00 0.00 0.00 0.00 0.00 0.00 0.00 0.00 0.00 0.00 0.00 0.00 0.01 0.00 0.00 0.00 0.00 0.00 0.00 0.00 0.00 0.00 0.00
0.00 0.00 0.00 0.00 0.00 0.01 0.02 0.02 0.02 0.01 0.00 0.00 0.00 0.00 0.00 0.00 0.00 0.00 0.00 0.00 0.00 0.00 0.00 0.00 0.00 0.00 0.00 0.00 0.00 0.00 0.00 0.00 0.00 0.00 0.00 0.00 0.00 0.00 0.00 0.00 0.00 0.00 0.00
0.00 0.01 0.01 0.01 0.00 0.01 0.02 0.01 0.01 0.01 0.01 0.00 0.00 0.00 0.00 0.00 0.00 0.00 0.00 0.00 0.00 0.00 0.00 0.00 0.00 0.00 0.00 0.00 0.00 0.00 0.00 0.00 0.00 0.00 0.00 0.00 0.00 0.00 0.00 0.00 0.00 0.00 0.00
0.01 0.02 0.04 0.03 0.03 0.03 0.04 0.03 0.01 0.00 0.01 0.00 0.00 0.00 0.00 0.00 0.00 0.00 0.00 0.00 0.00 0.00 0.00 0.00 0.00 0.00 0.00 0.00 0.00 0.00 0.00 0.00 0.00 0.00 0.00 0.00 0.00 0.00 0.00 0.00 0.00 0.00 0.00
0.00 0.00 0.01 0.01 0.02 0.02 0.03 0.02 0.01 0.00 0.00 0.00 0.00 0.00 0.00 0.00 0.00 0.01 0.00 0.00 0.00 0.00 0.00 0.00 0.00 0.00 0.00 0.00 0.00 0.00 0.00 0.00 0.00 0.00 0.00 0.00 0.00 0.00 0.00 0.00 0.00 0.00 0.00
0.00 0.00 0.00 0.00 0.00 0.00 0.00 0.00 0.00 0.00 0.00 0.00 0.00 0.00 0.00 0.00 0.00 0.00 0.02 0.01 0.01 0.01 0.00 0.00 0.00 0.00 0.00 0.00 0.00 0.00 0.00 0.00 0.00 0.00 0.00 0.00 0.00 0.00 0.01 0.01 0.01 0.00 0.00
0.00 0.00 0.00 0.00 0.00 0.00 0.00 0.00 0.00 0.00 0.03 0.05 0.05 0.04 0.02 0.03 0.03 0.02 0.02 0.03 0.06 0.04 0.00 0.00 0.00 0.00 0.00 0.00 0.00 0.00 0.00 0.00 0.00 0.00 0.00 0.00 0.00 0.00 0.00 0.02 0.03 0.03 0.02
0.00 0.00 0.00 0.00 0.00 0.00 0.00 0.00 0.00 0.00 0.02 0.05 0.07 0.07 0.06 0.05 0.02 0.01 0.01 0.03 0.04 0.03 0.01 0.00 0.00 0.00 0.00 0.00 0.00 0.00 0.00 0.00 0.00 0.00 0.00 0.00 0.00 0.00 0.00 0.01 0.01 0.02 0.03
0.00 0.00 0.00 0.00 0.00 0.00 0.00 0.00 0.00 0.00 0.02 0.05 0.05 0.07 0.06 0.06 0.04 0.02 0.01 0.02 0.01 0.00 0.00 0.00 0.00 0.00 0.00 0.00 0.00 0.00 0.00 0.00 0.00 0.00 0.00 0.00 0.00 0.00 0.00 0.00 0.00 0.00 0.00
0.00 0.00 0.00 0.00 0.00 0.00 0.00 0.00 0.00 0.01 0.02 0.03 0.03 0.04 0.02 0.03 0.03 0.01 0.00 0.00 0.00 0.00 0.00 0.00 0.00 0.00 0.00 0.00 0.00 0.00 0.00 0.00 0.00 0.00 0.00 0.00 0.00 0.00 0.00 0.00 0.00 0.00 0.01
0.00 0.00 0.00 0.00 0.00 0.00 0.00 0.02 0.01 0.02 0.02 0.02 0.02 0.03 0.03 0.02 0.01 0.00 0.00 0.00 0.00 0.00 0.00 0.00 0.00 0.00 0.00 0.00 0.00 0.00 0.00 0.00 0.00 0.00 0.00 0.00 0.00 0.00 0.00 0.00 0.00 0.00 0.00
0.00 0.00 0.00 0.01 0.01 0.02 0.03 0.05 0.07 0.08 0.08 0.08 0.06 0.05 0.04 0.02 0.01 0.00 0.00 0.00 0.00 0.00 0.00 0.00 0.00 0.00 0.00 0.00 0.00 0.00 0.00 0.00 0.00 0.00 0.00 0.00 0.00 0.00 0.00 0.00 0.00 0.00 0.00
0.00 0.00 0.00 0.00 0.02 0.06 0.08 0.08 0.06 0.04 0.06 0.08 0.08 0.09 0.07 0.03 0.01 0.00 0.00 0.00 0.00 0.00 0.00 0.00 0.00 0.00 0.00 0.00 0.00 0.00 0.00 0.00 0.00 0.00 0.00 0.00 0.00 0.00 0.00 0.00 0.00 0.00 0.00
0.00 0.00 0.01 0.01 0.00 0.01 0.03 0.06 0.06 0.07 0.11 0.15 0.15 0.12 0.05 0.02 0.01 0.00 0.00 0.00 0.00 0.00 0.00 0.00 0.00 0.00 0.00 0.00 0.00 0.00 0.00 0.00 0.00 0.00 0.00 0.00 0.00 0.00 0.00 0.00 0.00 0.00 0.00
0.00 0.00 0.00 0.00 0.00 0.00 0.00 0.03 0.08 0.07 0.04 0.04 0.04 0.02 0.01 0.01 0.02 0.02 0.01 0.01 0.00 0.00 0.00 0.00 0.00 0.00 0.00 0.00 0.00 0.00 0.00 0.00 0.00 0.00 0.00 0.00 0.00 0.00 0.00 0.00 0.00 0.00 0.00
0.03 0.04 0.02 0.02 0.02 0.00 0.01 0.01 0.01 0.02 0.02 0.02 0.01 0.01 0.00 0.03 0.05 0.03 0.01 0.01 0.00 0.00 0.00 0.00 0.00 0.00 0.00 0.00 0.00 0.00 0.00 0.00 0.00 0.00 0.00 0.00 0.00 0.00 0.00 0.00 0.00 0.00 0.00
0.04 0.06 0.06 0.10 0.11 0.06 0.06 0.07 0.05 0.03 0.03 0.02 0.01 0.00 0.01 0.04 0.02 0.03 0.03 0.02 0.01 0.00 0.00 0.00 0.00 0.00 0.00 0.00 0.00 0.00 0.00 0.00 0.00 0.00 0.00 0.00 0.00 0.00 0.00 0.00 0.00 0.00 0.00
0.06 0.09 0.11 0.09 0.09 0.05 0.06 0.06 0.04 0.02 0.01 0.01 0.01 0.01 0.01 0.03 0.06 0.02 0.03 0.02 0.00 0.00 0.00 0.00 0.00 0.00 0.00 0.00 0.00 0.00 0.00 0.00 0.00 0.00 0.00 0.00 0.00 0.00 0.00 0.00 0.00 0.00 0.00
0.02 0.03 0.04 0.06 0.07 0.06 0.07 0.04 0.03 0.01 0.01 0.02 0.02 0.03 0.03 0.03 0.03 0.02 0.00 0.00 0.00 0.00 0.00 0.00 0.00 0.00 0.00 0.00 0.00 0.00 0.00 0.00 0.00 0.00 0.00 0.00 0.00 0.00 0.00 0.00 0.00 0.00 0.00
0.02 0.04 0.05 0.05 0.04 0.03 0.06 0.04 0.02 0.00 0.02 0.03 0.03 0.04 0.03 0.01 0.02 0.02 0.01 0.00 0.00 0.00 0.00 0.00 0.00 0.00 0.00 0.00 0.00 0.00 0.00 0.00 0.00 0.00 0.00 0.00 0.00 0.00 0.00 0.00 0.00 0.00 0.00
0.03 0.02 0.03 0.03 0.05 0.03 0.08 0.04 0.02 0.01 0.02 0.03 0.03 0.02 0.04 0.01 0.02 0.01 0.00 0.00 0.00 0.00 0.00 0.00 0.00 0.00 0.00 0.00 0.00 0.00 0.00 0.00 0.00 0.00 0.00 0.00 0.00 0.00 0.01 0.00 0.00 0.00 0.00
MSLP
1019.98 1020.59 1021.32 1021.85 1022.14 1022.66 1022.77 1023.41 1023.73 1024.08 1024.55 1024.83 1025.14 1025.19 1025.45 1025.89 1026.32 1026.39 1026.57 1027.09 1027.06 1027.18 1027.31 1027.57 1027.81 1028.28 1028.70 1029.12 1029.36 1029.47 1029.60 1029.72 1029.80 1029.96 1030.27 1030.21 1030.30 1030.44 1030.45 1030.43 1030.50 1030.56 1030.42
1020.10 1020.68 1021.26 1021.98 1022.43 1022.63 1023.02 1023.41 1023.52 1024.02 1024.60 1024.91 1025.45 1025.51 1025.70 1025.99 1026.19 1026.58 1026.66 1026.93 1027.09 1027.11 1027.08 1027.40 1027.59 1028.00 1028.37 1028.78 1029.12 1029.37 1029.46 1029.66 1029.82 1029.93 1030.18 1030.42 1030.39 1030.35 1030.39 1030.62 1030.83 1030.68 1030.53
1020.09 1020.49 1021.02 1021.99 1022.53 1022.60 1023.25 1023.69 1023.99 1024.30 1024.57 1025.00 1025.27 1025.55 1025.86 1026.10 1026.20 1026.49 1026.72 1026.86 1026.88 1027.07 1027.03 1027.17 1027.26 1027.76 1028.16 1028.62 1028.81 1029.11 1029.44 1029.52 1029.69 1029.71 1029.87 1030.15 1030.33 1030.39 1030.53 1030.73 1030.80 1030.80 1030.58
1020.02 1020.78 1021.23 1021.87 1022.50 1022.27 1023.06 1023.44 1023.95 1024.13 1024.36 1024.84 1025.30 1025.34 1025.85 1026.01 1026.23 1026.43 1026.54 1026.68 1026.89 1026.82 1027.01 1027.07 1027.22 1027.52 1027.87 1028.22 1028.66 1028.89 1028.99 1029.19 1029.50 1029.61 1029.65 1029.80 1030.12 1030.30 1030.43 1030.69 1030.80 1030.72 1030.54
1020.30 1020.75 1021.43 1022.11 1022.39 1022.35 1022.99 1023.53 1023.86 1023.74 1024.27 1024.86 1025.14 1025.30 1025.68 1025.86 1026.12 1026.39 1026.48 1026.58 1026.78 1026.94 1026.76 1026.96 1027.18 1027.49 1027.73 1027.99 1028.21 1028.46 1028.65 1028.87 1029.17 1029.20 1029.32 1029.54 1029.86 1030.12 1030.18 1030.42 1030.52 1030.44 1030.46
1020.34 1020.81 1021.49 1021.99 1022.25 1022.47 1022.90 1023.36 1023.71 1024.01 1024.22 1024.70 1024.92 1025.14 1025.39 1025.66 1025.92 1026.17 1026.24 1026.36 1026.61 1026.86 1026.97 1027.00 1027.00 1027.08 1027.41 1027.64 1027.80 1027.96 1028.11 1028.35 1028.53 1028.71 1028.89 1028.95 1029.37 1029.75 1029.86 1030.07 1030.23 1030.31 1030.28
1020.35 1020.80 1021.30 1021.61 1022.21 1022.28 1022.51 1023.32 1023.83 1023.96 1024.12 1024.45 1025.01 1025.26 1025.49 1025.84 1025.98 1025.64 1025.89 1026.08 1026.27 1026.40 1026.66 1026.81 1026.80 1026.79 1026.92 1027.32 1027.58 1027.69 1027.76 1027.94 1027.98 1028.16 1028.31 1028.34 1028.88 1029.22 1029.42 1029.54 1029.80 1029.94 1029.96
1019.88 1020.56 1020.93 1021.40 1021.51 1022.48 1022.20 1023.11 1023.46 1023.53 1023.76 1024.13 1024.20 1024.64 1024.74 1025.13 1025.15 1025.08 1025.23 1025.69 1025.98 1025.99 1026.19 1026.44 1026.77 1027.14 1027.02 1026.81 1027.03 1027.46 1027.51 1027.44 1027.53 1027.54 1027.56 1027.71 1028.12 1028.43 1028.70 1028.91 1029.08 1029.21 1029.32
1019.72 1020.09 1020.88 1020.84 1021.57 1022.15 1021.85 1022.53 1022.79 1022.95 1023.04 1023.61 1023.81 1023.87 1024.37 1023.90 1024.32 1024.59 1024.81 1025.00 1025.20 1025.47 1025.78 1026.18 1026.20 1026.54 1026.78 1027.01 1027.05 1027.05 1027.29 1027.34 1027.33 1027.17 1027.08 1027.12 1027.41 1027.73 1028.00 1028.33 1028.58 1028.70 1028.84
1019.12 1019.69 1020.14 1020.84 1021.72 1021.67 1021.85 1021.91 1021.91 1022.63 1022.54 1022.85 1023.89 1023.79 1024.00 1023.77 1023.85 1023.87 1024.43 1024.94 1025.14 1025.45 1025.95 1025.99 1025.67 1026.11 1026.37 1026.66 1026.49 1026.61 1026.84 1026.96 1027.03 1027.09 1026.92 1026.81 1026.92 1027.21 1027.52 1027.74 1028.00 1028.16 1028.33
1018.85 1018.62 1018.77 1019.94 1021.06 1020.10 1020.78 1021.27 1021.79 1022.23 1022.26 1022.46 1022.64 1023.19 1023.63 1023.75 1023.91 1024.02 1024.03 1024.52 1025.00 1024.91 1025.17 1025.25 1025.22 1025.62 1026.00 1026.15 1026.23 1026.20 1026.36 1026.46 1026.60 1026.71 1026.67 1026.63 1026.54 1026.48 1026.60 1026.96 1027.07 1027.20 1027.39
1018.29 1018.31 1018.82 1020.03 1020.47 1020.41 1020.92 1021.10 1021.13 1021.54 1021.81 1022.07 1022.38 1022.76 1022.90 1023.12 1023.10 1023.72 1023.97 1024.11 1024.54 1024.67 1024.62 1024.67 1025.17 1025.42 1025.52 1025.61 1025.59 1025.75 1026.01 1026.24 1026.50 1026.46 1026.34 1026.27 1026.21 1026.14 1025.97 1025.87 1026.06 1026.26 1026.34
1017.99 1018.36 1018.63 1019.46 1019.65 1019.69 1020.07 1020.44 1020.60 1020.83 1021.05 1021.44 1021.78 1022.02 1022.33 1022.31 1022.33 1022.69 1023.35 1023.84 1024.25 1024.65 1024.48 1024.49 1024.68 1024.79 1024.81 1025.00 1025.41 1025.81 1025.88 1026.09 1026.14 1026.07 1025.94 1025.83 1025.75 1025.64 1025.54 1025.41 1025.26 1025.16 1025.39
1017.24 1017.78 1018.17 1018.53 1018.61 1018.99 1019.38 1019.66 1019.90 1019.90 1020.29 1020.53 1020.85 1021.14 1021.29 1021.45 1021.83 1022.03 1022.31 1023.17 1023.75 1023.96 1024.05 1023.85 1024.28 1024.78 1025.09 1025.16 1025.21 1025.82 1025.58 1025.72 1025.71 1025.67 1025.67 1025.61 1025.50 1025.39 1025.25 1025.06 1024.87 1024.72 1024.58
1016.76 1017.14 1017.33 1017.72 1017.87 1018.15 1018.52 1018.70 1018.68 1018.91 1019.50 1019.84 1020.16 1020.27 1020.41 1020.67 1021.21 1021.49 1021.71 1021.79 1022.34 1022.94 1023.13 1023.65 1023.65 1024.18 1024.57 1025.06 1025.12 1025.46 1025.27 1025.28 1025.37 1025.38 1025.38 1025.29 1025.13 1024.99 1024.82 1024.71 1024.55 1024.29 1024.00
1016.17 1016.45 1016.61 1016.83 1017.01 1017.43 1017.65 1017.81 1018.16 1018.66 1018.92 1018.98 1019.26 1019.52 1019.74 1020.11 1020.43 1020.77 1021.03 1021.46 1021.88 1022.29 1022.67 1023.10 1023.65 1024.23 1024.42 1024.54 1024.98 1024.91 1024.75 1025.10 1025.00 1025.04 1024.91 1024.84 1024.82 1024.68 1024.53 1024.36 1024.07 1023.80 1023.45
1014.96 1015.25 1015.46 1015.79 1016.07 1016.20 1016.64 1017.32 1017.71 1018.02 1018.36 1018.42 1018.66 1018.75 1019.09 1019.58 1019.85 1020.29 1020.68 1021.05 1021.37 1022.07 1022.40 1023.39 1023.69 1024.08 1024.29 1024.56 1024.45 1024.36 1024.49 1024.39 1024.26 1024.54 1024.58 1024.43 1024.27 1024.19 1024.00 1023.70 1023.50 1023.22 1022.88
1013.69 1013.94 1014.50 1014.92 1015.16 1015.42 1015.85 1016.42 1016.72 1017.19 1017.51 1017.57 1017.71 1018.08 1018.45 1018.88 1019.29 1019.82 1020.37 1020.85 1020.93 1021.70 1022.35 1022.93 1023.55 1024.17 1024.19 1023.79 1023.95 1024.03 1024.00 1024.07 1023.95 1023.86 1024.03 1023.93 1023.75 1023.67 1023.34 1023.09 1022.83 1022.43 1022.06
1012.74 1012.96 1013.24 1013.54 1013.93 1014.34 1014.75 1015.16 1015.67 1016.26 1016.51 1016.72 1016.97 1017.03 1017.45 1018.38 1018.87 1019.44 1019.89 1020.56 1021.02 1021.74 1022.03 1022.74 1022.92 1023.73 1024.20 1023.74 1023.80 1023.89 1023.78 1023.75 1023.66 1023.61 1023.60 1023.29 1023.11 1023.05 1022.78 1022.50 1022.08 1021.65 1021.23
1011.70 1011.96 1012.21 1012.52 1012.89 1013.28 1013.68 1014.30 1014.74 1015.13 1015.38 1015.79 1016.11 1016.40 1017.03 1017.67 1018.24 1018.82 1019.50 1020.24 1020.78 1021.83 1022.19 1022.80 1023.51 1023.60 1023.72 1023.60 1023.73 1023.57 1023.37 1023.51 1023.35 1023.13 1022.96 1022.93 1022.79 1022.47 1022.05 1021.75 1021.23 1020.77 1020.50
1010.21 1010.66 1011.14 1011.38 1011.83 1012.24 1012.62 1013.31 1013.90 1014.26 1014.76 1015.13 1015.56 1016.05 1016.61 1017.03 1017.57 1018.34 1019.06 1020.06 1020.96 1021.58 1022.44 1022.99 1023.39 1023.47 1023.53 1023.33 1023.20 1023.30 1023.35 1023.11 1022.70 1022.54 1022.34 1022.06 1021.83 1021.63 1021.09 1020.71 1020.16 1019.91 1019.63
1009.08 1009.61 1009.94 1010.40 1011.14 1011.50 1011.82 1012.27 1012.82 1013.36 1013.88 1014.36 1015.07 1015.81 1016.56 1017.19 1017.93 1018.56 1019.35 1020.34 1020.69 1021.86 1022.15 1022.71 1023.17 1023.01 1023.03 1023.20 1023.27 1023.32 1023.18 1022.83 1022.10 1022.09 1022.02 1021.60 1021.37 1020.79 1020.34 1019.89 1019.56 1019.31 1018.97
1008.19 1008.63 1009.06 1009.46 1009.83 1010.51 1011.11 1011.63 1012.09 1012.53 1013.15 1013.88 1014.64 1015.54 1016.58 1017.49 1018.04 1018.86 1019.64 1020.26 1021.19 1021.68 1021.95 1022.39 1022.70 1022.74 1022.92 1023.16 1023.59 1023.18 1022.96 1022.78 1022.38 1021.96 1021.95 1020.92 1020.66 1020.07 1019.57 1019.09 1018.86 1018.62 1018.25
1007.48 1008.00 1008.50 1008.99 1009.40 1009.91 1010.54 1011.29 1012.15 1012.58 1013.34 1014.07 1014.73 1015.37 1016.45 1017.45 1018.13 1019.07 1019.77 1020.77 1021.38 1021.84 1022.40 1022.66 1022.74 1022.85 1023.06 1023.24 1023.23 1023.12 1022.95 1022.64 1022.07 1021.64 1021.53 1020.23 1019.97 1019.32 1018.84 1018.45 1018.04 1017.84 1017.59
1007.59 1007.93 1008.42 1008.95 1009.53 1010.34 1010.79 1011.34 1012.17 1012.94 1013.91 1014.89 1015.37 1015.87 1016.50 1017.56 1018.56 1019.32 1019.95 1020.82 1021.60 1022.24 1022.74 1022.96 1023.01 1023.11 1023.36 1023.36 1023.36 1022.99 1022.51 1022.06 1021.39 1020.88 1020.87 1020.35 1019.57 1019.02 1018.35 1017.73 1017.06 1017.07 1016.94
1007.97 1008.71 1009.28 1009.61 1009.94 1010.68 1011.39 1011.75 1012.37 1013.51 1014.43 1015.41 1016.33 1016.76 1017.45 1017.96 1018.88 1019.64 1020.26 1020.82 1021.53 1022.21 1022.72 1022.84 1022.97 1023.04 1023.37 1022.97 1023.29 1022.96 1022.60 1022.19 1021.74 1020.99 1020.27 1020.30 1019.46 1019.48 1017.90 1016.91 1016.40 1016.21 1016.03
Thickness
5613 5609 5608 5606 5607 5605 5607 5604 5602 5599 5595 5594 5593 5595 5596 5595 5592 5593 5593 5591 5592 5592 5592 5590 5589 5586 5582 5578 5575 5573 5570 5568 5565 5562 5557 5556 5551 5548 5546 5543 5540 5536 5535
5608 5606 5605 5600 5600 5601 5600 5598 5597 5595 5589 5587 5586 5588 5591 5590 5591 5589 5588 5587 5589 5589 5590 5588 5587 5583 5580 5576 5572 5568 5566 5563 5559 5556 5551 5546 5543 5541 5538 5534 5529 5529 5529
5604 5604 5602 5595 5594 5598 5595 5592 5591 5588 5586 5583 5583 5585 5585 5586 5587 5587 5586 5585 5587 5587 5587 5585 5585 5580 5575 5569 5567 5563 5559 5558 5554 5551 5547 5541 5536 5533 5530 5526 5522 5521 5521
5601 5599 5597 5594 5589 5595 5590 5589 5586 5585 5584 5581 5579 5583 5580 5583 5584 5584 5584 5583 5582 5582 5583 5583 5581 5576 5571 5566 5561 5557 5554 5551 5546 5543 5540 5535 5529 5526 5523 5518 5516 5514 5514
5594 5594 5590 5587 5585 5587 5584 5581 5580 5582 5580 5576 5578 5580 5579 5580 5579 5579 5580 5581 5580 5578 5579 5578 5575 5570 5565 5562 5558 5553 5550 5546 5541 5538 5534 5529 5523 5519 5517 5512 5509 5508 5506
5590 5588 5584 5583 5583 5583 5582 5579 5578 5576 5577 5575 5576 5578 5579 5579 5577 5576 5577 5578 5575 5574 5571 5570 5568 5565 5562 5557 5552 5548 5544 5540 5537 5533 5528 5524 5518 5513 5510 5505 5502 5500 5497
5585 5583 5582 5582 5579 5581 5580 5576 5573 5574 5574 5574 5572 5573 5573 5572 5571 5576 5576 5574 5572 5571 5568 5564 5562 5559 5556 5551 5545 5541 5537 5533 5531 5527 5524 5520 5513 5507 5503 5500 5496 5492 5489
5585 5582 5580 5578 5580 5574 5578 5573 5572 5575 5576 5574 5575 5574 5575 5575 5573 5576 5576 5572 5569 5567 5564 5561 5556 5551 5548 5545 5541 5536 5533 5530 5527 5523 5520 5516 5508 5503 5499 5495 5490 5486 5481
5582 5581 5576 5579 5575 5571 5577 5574 5576 5577 5579 5576 5576 5578 5572 5579 5576 5575 5574 5571 5567 5564 5561 5558 5555 5547 5542 5538 5535 5533 5529 5524 5520 5516 5512 5509 5504 5498 5492 5486 5481 5477 5472
5582 5579 5578 5573 5568 5572 5574 5576 5581 5576 5579 5578 5571 5573 5571 5576 5575 5575 5570 5564 5561 5558 5554 5551 5549 5543 5540 5534 5532 5529 5524 5519 5513 5507 5503 5499 5495 5490 5484 5479 5473 5467 5462
5579 5584 5585 5577 5572 5582 5579 5579 5577 5573 5574 5575 5575 5571 5568 5568 5568 5566 5568 5562 5555 5554 5551 5547 5544 5539 5534 5529 5525 5522 5518 5513 5508 5502 5497 5491 5486 5483 5478 5470 5465 5460 5454
5580 5582 5582 5575 5575 5576 5575 5574 5575 5573 5574 5573 5571 5569 5568 5563 5566 5559 5557 5558 5551 5546 5546 5542 5536 5533 5529 5525 5521 5517 5511 5505 5499 5493 5489 5483 5477 5471 5467 5463 5456 5448 5442
5580 5580 5581 5579 5579 5580 5577 5575 5575 5575 5575 5573 5570 5567 5565 5565 5565 5560 5554 5549 5546 5538 5539 5535 5529 5526 5523 5519 5512 5506 5501 5495 5489 5484 5480 5475 5469 5464 5457 5452 5447 5440 5430
5587 5583 5582 5582 5584 5581 5579 5577 5577 5579 5577 5575 5571 5567 5566 5566 5561 5558 5554 5544 5535 5536 5532 5532 5522 5516 5512 5508 5503 5495 5491 5486 5481 5475 5470 5464 5458 5452 5447 5442 5435 5428 5420
5588 5586 5585 5586 5585 5584 5581 5580 5583 5582 5576 5573 5570 5569 5567 5564 5558 5554 5551 5549 5543 5534 5529 5522 5519 5509 5503 5497 5492 5485 5479 5474 5469 5464 5457 5452 5446 5441 5435 5429 5422 5416 5409
5589 5588 5589 5588 5586 5583 5582 5582 5580 5576 5573 5572 5569 5568 5565 5561 5556 5551 5548 5543 5537 5533 5529 5520 5509 5500 5494 5489 5481 5475 5470 5463 5457 5451 5446 5440 5434 5428 5421 5415 5409 5401 5395
5595 5594 5593 5591 5590 5589 5584 5578 5574 5570 5568 5568 5566 5564 5562 5556 5551 5546 5541 5538 5533 5523 5518 5505 5499 5492 5485 5477 5471 5465 5459 5453 5448 5441 5435 5429 5423 5415 5409 5402 5394 5387 5381
5598 5597 5593 5591 5589 5586 5581 5575 5572 5568 5566 5566 5565 5560 5557 5553 5547 5541 5534 5529 5526 5515 5505 5498 5489 5480 5474 5470 5462 5455 5448 5442 5436 5430 5422 5416 5409 5401 5395 5388 5380 5375 5367
5600 5598 5595 5593 5589 5584 5580 5576 5572 5567 5565 5564 5561 5560 5555 5546 5541 5535 5528 5520 5513 5504 5498 5487 5483 5470 5460 5458 5451 5444 5436 5429 5422 5416 5409 5402 5396 5386 5379 5371 5365 5360 5353
5601 5598 5596 5593 5590 5586 5582 5575 5571 5568 5564 5561 5559 5556 5549 5542 5536 5529 5520 5511 5503 5489 5482 5474 5462 5458 5451 5446 5438 5432 5426 5416 5409 5401 5397 5387 5379 5372 5365 5356 5353 5349 5342
5605 5601 5596 5594 5590 5587 5583 5576 5571 5568 5563 5558 5553 5549 5542 5537 5530 5521 5511 5499 5488 5478 5466 5457 5450 5444 5438 5434 5427 5418 5410 5404 5398 5390 5384 5374 5366 5359 5352 5347 5342 5334 5327
5606 5601 5598 5594 5586 5583 5578 5574 5569 5563 5559 5554 5546 5539 5530 5522 5513 5504 5494 5482 5477 5462 5455 5446 5437 5431 5425 5416 5408 5400 5395 5391 5391 5379 5369 5364 5350 5348 5340 5333 5326 5320 5312
5605 5600 5596 5592 5589 5582 5574 5569 5565 5562 5555 5548 5539 5529 5518 5508 5500 5489 5479 5469 5458 5450 5442 5433 5424 5417 5409 5399 5388 5385 5379 5373 5367 5358 5351 5355 5338 5335 5328 5321 5311 5303 5298
5603 5598 5593 5587 5583 5578 5569 5561 5554 5549 5542 5533 5526 5518 5505 5494 5485 5473 5462 5449 5439 5431 5421 5412 5405 5397 5388 5380 5373 5367 5360 5353 5348 5339 5329 5339 5325 5323 5316 5305 5295 5287 5279
5589 5586 5581 5576 5570 5562 5556 5551 5543 5534 5523 5512 5506 5499 5490 5478 5466 5455 5444 5432 5421 5410 5400 5392 5385 5377 5369 5361 5353 5348 5343 5338 5335 5328 5312 5308 5308 5303 5303 5295 5285 5271 5263
5574 5568 5562 5559 5555 5548 5539 5534 5528 5515 5504 5494 5486 5477 5467 5460 5446 5435 5425 5416 5406 5394 5382 5375 5367 5359 5349 5343 5333 5326 5321 5316 5308 5305 5297 5290 5288 5270 5287 5285 5272 5260 5251